Location: Siloam Springs
(36.1881°N, 94.5403°W)
Time: 17:11:10
(UTC-05:00)

CUBESAT XI-V - Visible Passes

Search period start: 27 May 2024 00:00
Search period end: 06 June 2024 00:00
Orbit: 657 x 680 km, 98.2° (Epoch: 26 May)

Date Brightness Start Highest point End Pass type
(mag) Time Alt. Az. Time Alt. Az. Time Alt. Az.
27 May ? 02:37:17 23° E 02:38:17 25° ENE 02:41:56 10° NNE visible
27 May ? 04:15:27 27° W 04:15:27 27° W 04:19:03 10° NW visible
28 May ? 03:09:51 51° E 03:10:21 55° ENE 03:14:47 10° N visible
28 May ? 04:48:01 12° W 04:48:01 12° W 04:49:19 10° WNW visible
29 May ? 02:04:43 10° E 02:06:05 11° ENE 02:07:27 10° NE visible
29 May ? 03:42:26 63° WSW 03:42:34 64° W 03:47:04 10° NNW visible
30 May ? 02:36:50 22° E 02:38:00 24° ENE 02:41:38 10° NNE visible
30 May ? 04:15:00 27° W 04:15:00 27° W 04:18:46 10° NW visible
31 May ? 03:09:24 49° ESE 03:10:03 54° ENE 03:14:28 10° N visible
31 May ? 04:47:35 12° W 04:47:35 12° W 04:49:04 10° WNW visible
01 Jun ? 02:04:30 10° E 02:05:46 11° ENE 02:07:03 10° NE visible
01 Jun ? 03:41:59 63° WSW 03:42:14 64° WSW 03:46:44 10° NNW visible
02 Jun ? 02:36:22 21° E 02:37:40 24° ENE 02:41:16 10° NNE visible
02 Jun ? 04:14:33 27° W 04:14:34 27° W 04:18:26 10° NW visible
03 Jun ? 03:08:56 47° ESE 03:09:42 53° ENE 03:14:06 10° N visible
03 Jun ? 04:47:06 12° W 04:47:06 12° W 04:48:47 10° WNW visible
04 Jun ? 02:04:15 10° ENE 02:05:25 11° ENE 02:06:35 10° NE visible
04 Jun ? 03:41:30 62° SW 03:41:52 65° W 03:46:22 10° NNW visible
05 Jun ? 02:35:54 20° E 02:37:17 24° ENE 02:40:52 10° NNE visible
05 Jun ? 04:14:03 28° W 04:14:10 28° W 04:18:04 10° NW visible
